Showing default

LEMUR 2 LEIA-PHILIP, 63246

Orbit data source: Space-Track

LEMUR 2 LEIA-PHILIP, 63246 is a payload satellite owned by Spire (US) in SSO that was launched on Sat, 15 Mar 2025 UTC via an FALCON 9 launch vehicle from the Air Force Western Test Range (AFWTR). Payload-class satellites include a variety of spacecraft equipped with specific instruments for various scientific and technological missions. These include communications satellites like Starlink; space stations such as the ISS; scientific satellites like the Hubble; Earth observation satellites from companies like Planet Labs, Umbra, and HawkEye 360; GPS; miniature CubeSats for education and research; and military/defense satellites.

Loading next visibility...
Identifier
63246, 2025-052AN
Orbit
SSO
Country
Flag of USUS
Related business
Manufacturer
Spire/Glasgow
Mission
Operational Commercial Com/MetRO
Bus & Motor
CUBESAT 6U, Unknown motor
Mass
10 kg wet, 10 kg dry
Launch date (UTC)
2025-03-15 (7 months ago)
Launch vehicle
FALCON 9
Launch site
Air Force Western Test Range (AFWTR)
Object type
Payload
Rocket body
Debris
Shape & HBR
Box, 0.2 m
Radar Cross Section
0.080 m², Small (<0.1 m²)

Expand to show TLE details & history
Last TLE update: 1 day ago

TLE from 1 day ago
0 LEMUR 2 LEIA-PHILIP
1 63246U 25052AN  25286.41064241  .00009742  00000-0  91528-3 0  9990
2 63246  97.7054 177.5426 0004081   0.7794 359.3432 14.94128418 31776
Epoch: 2025-10-13T09:51Z
TLE epoch observation values (Epoch: 2025-10-13T09:51:19.504Z)
Latitude
0.00001°
Longitude
7.49752°
Altitude
585.284 km
Speed
7.569 km/s
True Right ascension
11h 50m 10s
True Declination
0° 00' 00"
Sunlit
Object was in daylight at epoch
Visualization orbit readout
Latitude
Unknown
Longitude
Unknown
Altitude
Unknown
Speed
Unknown
Apparent Right ascension
Unknown
Apparent Declination
Unknown
Sunlit
N/A
Visualization observer readout
Local Sidereal Time
11:59:42
Azimuth
Unknown
Elevation
Unknown
Doppler factor
Unknown
Orbital elements
Apogee altitude
584.933 km
Perigee altitude
579.252 km
Semi-major axis
6,960.23 km
Eccentricity
0.00041
Inclination
97.7054°
RAAN
177.5426°
Arg. of periapsis
0.7794°
True anomaly
359.34266°
Mean anomaly
359.3432°
Eccentric anomaly
359.34293°
Mean motion
3.73773 °/min
Orbital period
96.32 mins
BSTAR
0.00091528
Loading maneuver chart data...
Computing Atmospheric mass density...
Loading historical data...
Loading historical data...
Loading historical data...
Loading historical data...
Loading historical data...
Loading historical data...
Loading historical data...

Documentation

Showing up to 5 results
|